Wichita, KS

5:26 PM CST on December 06, 2016 (GMT -0600)
Col Jabara

Weather History for KAAO - October, 2012

Change the Weather History Date:

Tuesday, October 2, 2012

  Actual Average (KICT) Record (KICT)
Temperature  
Mean Temperature 60 °F 64 °F  
Max Temperature 73 °F 75 °F 95 °F (2006)
Min Temperature 48 °F 52 °F 36 °F (1975)
Degree Days  
Heating Degree Days 4 4  
Month to date heating degree days 8  
Since 1 July heating degree days 51  
Cooling Degree Days 0 3  
Month to date cooling degree days 6  
Year to date cooling degree days 1655  
Growing Degree Days 10 (Base 50)    
Moisture  
Dew Point 41 °F    
Average Humidity 52    
Maximum Humidity 83    
Minimum Humidity 27    
Precipitation  
Precipitation 0.00 in 0.11 in 4.14 in (1955)
Month to date precipitation 0.22  
Year to date precipitation 27.45  
Snow  
Snow 0.00 in 0.00 in 0.00 in (2007)
Month to date snowfall 0.0  
Since 1 July snowfall 0.0  
Since 1 September snowfall 0.0  
Snow Depth -    
Sea Level Pressure  
Sea Level Pressure 29.95 in    
Wind  
Wind Speed 8 mph (NW)    
Max Wind Speed 13 mph    
Max Gust Speed -    
Visibility 10 miles    
Events      
T = Trace of Precipitation, MM = Missing Value Source: NWS Daily Summary

Daily Weather History Graph

Daily Weather History Graph

Search for Another Location

Airport or City:

Trip Planner

Search our weather history database for the weather conditions in past years. The results will help you decide how hot, cold, wet, or windy it might be!

Date:

Astronomy

Oct. 02, 2012 Rise Set
Actual Time 7:25 AM CDT 7:09 PM CDT
Civil Twilight 6:59 AM CDT 7:35 PM CDT
Nautical Twilight 6:29 AM CDT 8:06 PM CDT
Astronomical Twilight 5:58 AM CDT 8:36 PM CDT
Moon 8:27 PM CDT (10/2) 9:50 AM CDT (10/2)
Length of Visible Light 12h 36m
Length of Day
11h 43m
Waning Gibbous, 94% of the Moon is Illuminated
Oct 2
Waning Gibbous
Oct 8
Last Quarter
Oct 15
New
Oct 21
First Quarter
Oct 29
Full

Hourly Weather History & Observations

Time (CDT) Temp. Dew Point Humidity Pressure Visibility Wind Dir Wind Speed Gust Speed Precip Events Conditions
12:54 AM 61.0 °F 46.0 °F 58% 29.96 in 10.0 mi North 12.7 mph - N/A   Overcast
1:54 AM 57.9 °F 45.0 °F 62% 29.97 in 10.0 mi North 12.7 mph - N/A   Partly Cloudy
2:54 AM 55.9 °F 45.0 °F 67% 29.97 in 10.0 mi North 11.5 mph - N/A   Clear
3:54 AM 54.0 °F 44.1 °F 69% 29.98 in 10.0 mi NNW 9.2 mph - N/A   Clear
4:54 AM 51.1 °F 44.1 °F 77% 29.98 in 10.0 mi NNW 6.9 mph - N/A   Clear
6:54 AM 48.0 °F 42.1 °F 80% 30.00 in 10.0 mi NW 6.9 mph - N/A   Clear
7:54 AM 48.0 °F 43.0 °F 83% 30.01 in 10.0 mi NW 6.9 mph - N/A   Clear
8:54 AM 53.1 °F 43.0 °F 69% 30.01 in 10.0 mi NW 6.9 mph - N/A   Clear
9:54 AM 57.9 °F 44.1 °F 60% 30.01 in 10.0 mi NW 6.9 mph - N/A   Clear
10:54 AM 62.1 °F 44.1 °F 52% 30.01 in 10.0 mi WNW 5.8 mph - N/A   Clear
11:54 AM 66.9 °F 42.1 °F 40% 30.00 in 10.0 mi NNW 4.6 mph - N/A   Clear
12:54 PM 70.0 °F 39.9 °F 33% 29.98 in 10.0 mi WNW 10.4 mph - N/A   Clear
1:54 PM 70.0 °F 39.9 °F 33% 29.95 in 10.0 mi NNW 10.4 mph - N/A   Clear
2:54 PM 72.0 °F 37.9 °F 29% 29.92 in 10.0 mi Calm Calm - N/A   Clear
3:54 PM 73.0 °F 37.0 °F 27% 29.91 in 10.0 mi NW 6.9 mph - N/A   Clear
4:54 PM 73.0 °F 37.0 °F 27% 29.90 in 10.0 mi NNW 4.6 mph - N/A   Clear
5:54 PM 71.1 °F 39.9 °F 32% 29.90 in 10.0 mi Calm Calm - N/A   Clear
6:54 PM 68.0 °F 39.9 °F 36% 29.90 in 10.0 mi Calm Calm - N/A   Clear
7:54 PM 62.1 °F 39.0 °F 43% 29.91 in 10.0 mi SE 3.5 mph - N/A   Clear
8:54 PM 60.1 °F 39.9 °F 47% 29.91 in 10.0 mi SSE 3.5 mph - N/A   Clear
9:54 PM 57.9 °F 39.9 °F 51% 29.92 in 10.0 mi SSE 3.5 mph - N/A   Clear
10:54 PM 54.0 °F 39.9 °F 59% 29.92 in 10.0 mi SSE 4.6 mph - N/A   Clear
11:54 PM 54.0 °F 39.0 °F 57% 29.92 in 10.0 mi South 5.8 mph - N/A   Clear